Voltar ao catálogo

FENGYUN 1C DEB

AtivoSSO
NORAD 29849·DEBRIS·🇨🇳 China

Lançado May 10, 1999 de Taiyuan Satellite Launch Center

Loading…

Próximas Passagens (próximas 24 horas)

TLE

AtualizadoSource: Space-Track

Época: Sep 14, 2026, 11:14 UTC

1 29849U 99025ET  26257.46844015  .00001196  00000-0  73919-3 0  9990
2 29849  99.0022 344.9580 0079261 356.0272  62.3829 14.05740159  2434

Acompanhe FENGYUN 1C DEB em tempo real com AllMySat

Download on the App Store